West Columbia, SC

10:58 AM EST on February 14, 2016 (GMT -0500)
Columbia Metro

Weather History for KCAE - November, 2013

Change the Weather History Date:

Saturday, November 9, 2013

  Actual Average Record
Temperature  
Mean Temperature 48 °F 57 °F  
Max Temperature 64 °F 69 °F 84 °F (2005)
Min Temperature 32 °F 44 °F 21 °F (1976)
Degree Days  
Heating Degree Days 17 9  
Month to date heating degree days 68 71  
Since 1 July heating degree days 139 191  
Cooling Degree Days 0 1  
Month to date cooling degree days 7 9  
Year to date cooling degree days 2165 2161  
Moisture  
Dew Point 33 °F    
Average Humidity 60    
Maximum Humidity 92    
Minimum Humidity 28    
Precipitation  
Precipitation 0.00 in 0.09 in 2.14 in (1962)
Month to date precipitation 1.15 0.80  
Year to date precipitation 48.68 39.43  
Sea Level Pressure  
Sea Level Pressure 30.31 in    
Wind  
Wind Speed 2 mph (WNW)    
Max Wind Speed 6 mph    
Max Gust Speed 10 mph    
Visibility 10 miles    
Events      
T = Trace of Precipitation, MM = Missing Value Source: NWS Daily Summary

Daily Weather History Graph

Daily Weather History Graph

Search for Another Location

Airport or City:

Trip Planner

Search our weather history database for the weather conditions in past years. The results will help you decide how hot, cold, wet, or windy it might be!

Date:

Astronomy

Nov. 09, 2013 Rise Set
Actual Time 6:51 AM EST 5:24 PM EST
Civil Twilight 6:25 AM EST 5:51 PM EST
Nautical Twilight 5:55 AM EST 6:20 PM EST
Astronomical Twilight 5:25 AM EST 6:50 PM EST
Moon 12:30 PM EST (11/9) 11:49 PM EST (11/9)
Length of Visible Light 11h 25m
Length of Day
10h 33m
Waxing Crescent, 44% of the Moon is Illuminated
Nov 9
Waxing Crescent
Nov 10
First Quarter
Nov 17
Full
Nov 25
Last Quarter
Dec 2
New

Hourly Weather History & Observations

Time (EST) Temp. Windchill Dew Point Humidity Pressure Visibility Wind Dir Wind Speed Gust Speed Precip Events Conditions
12:56 AM 35.6 °F 32.8 °F 33.8 °F 93% 30.32 in 9.0 mi Variable 3.5 mph - N/A   Partly Cloudy
1:56 AM 33.8 °F 30.8 °F 30.2 °F 87% 30.33 in 10.0 mi Variable 3.5 mph - N/A   Partly Cloudy
3:56 AM 33.8 °F 29.6 °F 24.8 °F 70% 30.33 in 10.0 mi Variable 4.6 mph - N/A   Partly Cloudy
4:56 AM 33.8 °F 29.6 °F 24.8 °F 70% 30.34 in 10.0 mi Variable 4.6 mph - N/A   Partly Cloudy
5:56 AM 33.8 °F 29.6 °F 24.8 °F 70% 30.35 in 10.0 mi Variable 4.6 mph - N/A   Partly Cloudy
6:56 AM 32.0 °F 28.7 °F 26.6 °F 80% 30.36 in 10.0 mi Variable 3.5 mph - N/A   Scattered Clouds
7:56 AM 39.2 °F - 30.2 °F 70% 30.37 in 10.0 mi Calm Calm - N/A   Scattered Clouds
8:56 AM 48.2 °F - 30.2 °F 50% 30.38 in 10.0 mi Calm Calm - N/A   Mostly Cloudy
9:56 AM 50.0 °F - 35.6 °F 58% 30.38 in 10.0 mi Calm Calm - N/A   Scattered Clouds
10:56 AM 55.4 °F - 33.8 °F 44% 30.37 in 10.0 mi Calm Calm - N/A   Mostly Cloudy
11:56 AM 59.0 °F - 32.0 °F 36% 30.34 in 10.0 mi Calm Calm - N/A   Mostly Cloudy
12:56 PM 60.8 °F - 32.0 °F 34% 30.31 in 10.0 mi Calm Calm - N/A   Mostly Cloudy
1:56 PM 64.4 °F - 32.0 °F 30% 30.28 in 10.0 mi Calm Calm - N/A   Mostly Cloudy
2:56 PM 64.4 °F - 30.2 °F 28% 30.27 in 10.0 mi Calm Calm - N/A   Mostly Cloudy
3:56 PM 60.8 °F - 32.0 °F 34% 30.27 in 10.0 mi Calm Calm - N/A   Mostly Cloudy
4:56 PM 57.2 °F - 32.0 °F 38% 30.28 in 10.0 mi Calm Calm - N/A   Mostly Cloudy
5:56 PM 55.4 °F - 32.0 °F 41% 30.27 in 10.0 mi Calm Calm - N/A   Mostly Cloudy
6:56 PM 53.6 °F - 37.4 °F 54% 30.25 in 10.0 mi East 1.2 mph - N/A   Overcast
7:56 PM 53.6 °F - 37.4 °F 54% 30.27 in 10.0 mi West 4.6 mph - N/A   Overcast
8:56 PM 51.8 °F - 39.2 °F 62% 30.26 in 10.0 mi Calm Calm - N/A   Mostly Cloudy
9:56 PM 51.8 °F - 41.0 °F 67% 30.25 in 10.0 mi NW 4.6 mph - N/A   Mostly Cloudy
10:56 PM 51.8 °F - 41.0 °F 67% 30.25 in 10.0 mi West 4.6 mph - N/A   Mostly Cloudy
11:56 PM 53.6 °F - 39.2 °F 58% 30.24 in 10.0 mi West 5.8 mph - N/A   Mostly Cloudy